Regional Weather Roundup
Issued by NWS

Home | Current Version | Previous Version | Graphics & Text | Print | Product List | Glossary On
Versions: 1 2 3 4 5 6 7 8 9 10 11 12 13 14 15 16 17 18 19 20 21 22 23 24 25 26 27 28 29 30 31 32 33 34 35 36 37 38 39 40 41 42 43 44 45 46 47 48 49 50
274
ASUS43 KDMX 051508
RWRIA

WEATHER ROUNDUP FOR IOWA
NATIONAL WEATHER SERVICE DES MOINES IA
900 AM CST FRI FEB 05 2016

NOTE: "FAIR" INDICATES FEW OR NO CLOUDS BELOW 12,000 FEET WITH NO
SIGNIFICANT WEATHER AND/OR OBSTRUCTIONS TO VISIBILITY.

* - THESE STATIONS ARE NOT NWS STATIONS...THUS NOT UNDER NWS
QUALITY CONTROL.  THEY ALSO DO NOT REPORT WEATHER SUCH
AS PRECIPITATION OR FOG.

IAZ001>003-012>014-020>022-031>034-043>046-051600-
   NORTHWEST IOWA

CITY           SKY/WX    TMP DP  RH WIND       PRES   REMARKS
CARROLL *      SUNNY     14  12  92 S6        30.35S WCI   5
CHEROKEE *     CLOUDY     5   3  92 CALM      30.31S
DENISON *      SUNNY     18  18 100 S8        30.32F WCI   7
LE MARS *      MOSUNNY   19  19 100 S13       30.29S WCI   7
ORANGE CITY *  SUNNY     18  18 100 S9        30.26S WCI   6
SHELDON *      SUNNY     14  14 100 S10       30.26S WCI   1
SIOUX CITY     CLOUDY    18  13  80 E10       30.30S WCI   6
SPENCER        CLOUDY    13   8  81 SE8       30.30S WCI   2
STORM LAKE *   SUNNY     12  12 100 S9        30.31S WCI   0
$$

IAZ055>058-069>071-079>083-090>094-051600-
   SOUTHWEST IOWA

CITY           SKY/WX    TMP DP  RH WIND       PRES   REMARKS
ATLANTIC *     MOSUNNY   18  16  93 CALM      30.38S
AUDUBON *      SUNNY     10   7  85 CALM      30.36S FOG
CLARINDA *     MOSUNNY   25  23  93 S6        30.43R WCI  18
COUNCIL BLFS * SUNNY     23  21  93 S8        30.36S WCI  14
CRESTON *      MOSUNNY   21  18  86 CALM      30.39S
HARLAN  *      SUNNY     12  10  92 CALM      30.40S FOG
LAMONI         CLOUDY    22  16  78 S6        30.40R WCI  14
RED OAK *      SUNNY     23  23 100 S8        30.40R WCI  14
SHENANDOAH *     N/A     25  25 100 S6        30.41S WCI  18
$$

IAZ047>049-059>061-072>074-084-051600-
   CENTRAL IOWA

CITY           SKY/WX    TMP DP  RH WIND       PRES   REMARKS
AMES           MOSUNNY   12  10  92 CALM      30.39S FOG
ANKENY *       SUNNY     16  16 100 CALM      30.40F
BOONE *        MOSUNNY   12   9  85 SE6       30.36F FOG     WCI   3
CHARITON *     SUNNY     21  16  79 SW3       30.40R
DES MOINES     CLOUDY    19  14  81 S3        30.40S
GRINNELL*      CLOUDY    16  14  93 CALM      30.41R
KNOXVILLE *    SUNNY     19  14  79 CALM      30.40R
MARSHALLTOWN   CLOUDY    10   9  95 CALM      30.39R
NEWTON *       SUNNY     18  14  86 CALM      30.41R
PELLA *        MOSUNNY   19  16  86 CALM      30.43R
$$

IAZ004>006-015-016-023>025-035-036-051600-
   NORTH CENTRAL IOWA

CITY           SKY/WX    TMP DP  RH WIND       PRES   REMARKS
ALGONA *       SUNNY     12  10  92 S9        30.33R WCI   0
CLARION *      SUNNY      9   5  85 SE8       30.36F FOG     WCI  -4
ESTHERVILLE    CLOUDY     7   5  91 S10       30.30S WCI  -8
FORT DODGE *   CLOUDY     7   1  78 CALM      30.36R
MASON CITY     CLOUDY     6   4  91 S6        30.36S FOG     WCI  -4
FOREST CITY *  LGT SNOW   7   5  92 CALM      30.35R
WEBSTER CITY * SUNNY      5   1  85 SE8       30.35F FOG     WCI  -8
IOWA FALLS *   FOG        7   3  85 CALM      30.38F VSB<1/4
$$

IAZ007>011-017>019-026>030-037>042-050>054-066-051600-
   NORTHEAST IOWA

CITY           SKY/WX    TMP DP  RH WIND       PRES   REMARKS
CEDAR RAPIDS   SUNNY     16  14  92 NW6       30.39R WCI   7
CHARLES CITY * SUNNY      5   3  92 CALM      30.38R
CLINTON *      CLOUDY    27  20  75 N6        30.40R WCI  20
DECORAH *      SUNNY      9   7  92 CALM      30.35S
DUBUQUE        CLOUDY    22  16  78 W3        30.37R HAZE
MONTICELLO *   SUNNY     18  12  79 CALM      30.39S
OELWEIN *      SUNNY      7   3  85 CALM      30.38S
WATERLOO       CLOUDY     6   5  95 CALM      30.40S
$$

IAZ064-065-067-068-078-051600-
   EAST CENTRAL IOWA

CITY           SKY/WX    TMP DP  RH WIND       PRES   REMARKS
DAVENPORT      MOSUNNY   25  18  74 NW7       30.40R WCI  17
IOWA CITY      SUNNY     19  15  84 CALM      30.43R
MT. PLEASANT * MOSUNNY   23  19  86 W3        30.42R
MUSCATINE *    SUNNY     23  18  80 NW7       30.43R WCI  15
QUAD CITIES    PTSUNNY   27  17  66 NW5       30.40R WCI  22
$$

IAZ062-063-075>077-085>089-095>099-051600-
   SOUTHEAST IOWA

CITY           SKY/WX    TMP DP  RH WIND       PRES   REMARKS
BURLINGTON     SUNNY     22  19  89 NW6       30.41R WCI  14
FAIRFIELD *    SUNNY     19  16  86 NW6       30.42R WCI  11
FORT MADISON * SUNNY     21  19  93 NW5       30.42S WCI  15
KEOKUK *       SUNNY     25  19  80 CALM      30.42R
OSKALOOSA *      N/A     19  16  86 CALM      30.42R
CENTERVILLE *    N/A    N/A N/A N/A MISG        N/A
OTTUMWA        MOSUNNY   20  15  81 NW3       30.41R
WASHINGTON *   SUNNY     21  18  86 W5        30.43R WCI  15
$$

ABBREVIATIONS USED IN REMARKS
   TC - TEMPERATURES IN CELSIUS
  WCI - WIND CHILL INDEX
   HX - HEAT INDEX
  VSB - VISIBILITY
$$





USA.gov is the U.S. government's official web portal to all federal, state and local government web resources and services.